Location: Newark
(35.5300°N, 14.3000°E)
Time: 09:37:10
(UTC+00:00)

Courier 1B - Visible Passes

Search period start: 20 November 2019 00:00
Search period end: 30 November 2019 00:00
Orbit: 963 x 1209 km, 28.3° (Epoch: 19 November)

Date Brightness Start Highest point End Pass type
(mag) Time Alt. Az. Time Alt. Az. Time Alt. Az.
20 Nov 9.3 03:28:50 15° SSW 03:32:57 25° SSE 03:38:22 10° ESE visible
21 Nov 9.4 02:38:52 21° SSE 02:39:18 21° SSE 02:44:18 10° ESE visible
21 Nov 8.7 04:26:19 10° SW 04:32:48 39° S 04:38:57 10° ESE visible
22 Nov 10.1 01:48:49 13° SE 01:48:49 13° SE 01:49:56 10° ESE visible
22 Nov 8.8 03:35:44 23° SSW 03:39:07 35° SSE 03:45:13 10° ESE visible
23 Nov 9.0 02:45:36 31° SSE 02:45:36 31° SSE 02:51:24 10° ESE visible
23 Nov 8.4 04:32:31 11° WSW 04:39:04 46° S 04:45:27 10° ESE visible
24 Nov 9.9 01:55:25 17° ESE 01:55:25 17° ESE 01:57:28 10° ESE visible
24 Nov 8.4 03:42:19 29° SW 03:45:21 43° S 03:51:49 10° ESE visible
25 Nov 8.6 02:52:03 40° SSE 02:52:03 40° SSE 02:58:07 10° ESE visible
25 Nov 8.4 04:38:58 12° WSW 04:45:21 47° S 04:51:49 10° ESE visible
26 Nov 9.7 02:01:45 21° ESE 02:01:45 21° ESE 02:04:20 10° E visible
26 Nov 8.3 03:48:40 32° SW 03:51:37 48° S 03:58:15 10° ESE visible
27 Nov 8.4 02:58:19 46° SSE 02:58:19 46° SSE 03:04:36 10° ESE visible
27 Nov 8.5 04:45:13 12° WSW 04:51:37 44° S 04:58:03 10° ESE visible
28 Nov 9.5 02:07:58 25° ESE 02:07:58 25° ESE 02:10:53 10° ESE visible
28 Nov 8.3 03:54:51 31° WSW 03:57:53 47° S 04:04:33 10° ESE visible
29 Nov 8.3 03:04:29 49° S 03:04:29 49° S 03:10:58 10° ESE visible
29 Nov 8.7 04:51:22 11° W 04:57:48 36° SSW 05:04:00 10° SE visible
